Lapse_Rate
7.1 7.1 7.0 7.0 6.9 6.7 6.5 6.3 6.3 6.3 6.5 6.7 6.9 6.9 6.8 6.8 6.7 6.8 6.7 6.6 6.4 6.4 6.5 6.6 6.6 6.6 6.6 6.6 6.6 6.6 6.5 6.5 6.6 6.5 6.3 6.2 6.1 6.1 6.1 5.9 6.0 5.8 5.8
7.4 7.2 7.1 6.9 6.7 6.7 6.5 6.4 6.4 6.4 6.5 6.5 6.7 7.0 6.8 6.8 6.8 6.8 6.8 6.5 6.5 6.4 6.5 6.5 6.6 6.5 6.5 6.6 6.6 6.5 6.5 6.6 6.5 6.5 6.3 6.0 6.0 6.0 6.1 6.0 5.9 5.9 5.7
7.4 7.3 7.0 6.9 6.8 6.7 6.7 6.6 6.6 6.6 6.7 6.7 6.8 6.8 7.0 7.0 6.7 6.7 6.7 6.5 6.4 6.5 6.4 6.4 6.5 6.5 6.5 6.5 6.6 6.6 6.4 6.3 6.3 6.3 6.3 6.2 6.0 6.0 6.0 6.0 5.9 5.9 5.6
7.2 7.1 7.1 6.9 6.8 6.6 6.7 6.7 6.9 6.8 6.8 6.8 6.7 6.9 6.9 6.9 6.9 6.7 6.6 6.6 6.6 6.6 6.5 6.5 6.4 6.5 6.5 6.5 6.5 6.4 6.4 6.3 6.4 6.4 6.3 6.2 6.2 6.1 6.0 5.9 6.0 6.0 5.7
7.2 7.2 7.0 6.8 6.7 6.6 6.7 6.9 6.9 6.8 6.8 6.9 7.0 7.1 7.1 7.0 6.9 6.8 6.7 6.7 6.8 6.7 6.7 6.6 6.6 6.5 6.5 6.4 6.5 6.4 6.4 6.3 6.3 6.4 6.4 6.3 6.1 6.0 5.9 5.8 5.8 5.8 5.7
7.2 7.0 7.1 6.9 6.8 6.7 6.8 7.0 7.0 7.0 6.9 7.1 7.1 7.1 7.1 7.0 6.9 6.8 6.7 6.7 6.6 6.6 6.6 6.6 6.5 6.5 6.4 6.4 6.4 6.4 6.3 6.1 6.1 6.2 6.2 6.2 6.0 5.9 5.7 5.4 5.4 5.5 5.5
7.2 7.1 7.1 7.1 6.9 6.9 6.9 7.0 7.1 7.1 7.1 7.2 7.1 7.1 7.0 6.9 6.8 6.6 6.4 6.4 6.5 6.5 6.5 6.4 6.4 6.3 6.3 6.2 6.2 6.1 6.1 6.1 6.0 6.0 5.9 6.0 5.8 5.6 5.6 5.6 5.3 5.1 5.1
7.5 7.4 7.2 7.2 7.1 7.0 7.0 7.1 7.1 7.2 7.2 7.1 7.0 6.9 6.9 6.7 6.7 6.5 6.5 6.5 6.4 6.4 6.3 6.3 6.1 6.1 6.0 5.9 6.0 5.9 5.7 5.7 5.6 5.6 5.5 5.5 5.5 5.5 5.3 5.2 5.2 5.2 5.1
7.6 7.4 7.3 7.1 7.1 7.2 7.2 7.1 7.1 7.2 7.2 7.1 7.0 6.8 6.7 6.6 6.5 6.4 6.4 6.4 6.3 6.2 6.1 6.1 6.0 5.9 5.9 5.8 5.8 5.7 5.6 5.5 5.4 5.4 5.3 5.2 5.1 5.1 5.1 5.1 5.0 5.0 4.9
7.5 7.4 7.4 7.2 7.2 7.3 7.3 7.3 7.3 7.2 7.2 7.1 7.0 6.8 6.7 6.7 6.5 6.5 6.5 6.4 6.3 6.2 6.2 6.1 6.0 6.0 5.9 5.8 5.9 5.9 5.9 5.8 5.7 5.6 5.5 5.3 5.2 5.1 5.1 5.0 5.1 5.1 5.0
7.6 7.4 7.5 7.4 7.3 7.4 7.4 7.3 7.3 7.3 7.3 7.1 7.1 6.9 6.8 6.7 6.6 6.5 6.5 6.4 6.3 6.2 6.2 6.1 6.1 6.2 6.1 6.1 6.1 6.0 6.0 5.9 5.8 5.7 5.6 5.4 5.4 5.4 5.3 5.1 4.7 4.7 4.7
7.6 7.5 7.6 7.6 7.3 7.4 7.4 7.3 7.4 7.4 7.3 7.2 7.1 6.9 6.9 6.8 6.6 6.7 6.6 6.5 6.3 6.3 6.3 6.3 6.1 6.0 6.0 5.9 5.8 5.9 5.9 5.9 5.8 5.7 5.5 5.4 5.3 5.4 5.4 5.5 5.0 5.0 5.0
7.6 7.7 7.6 7.3 7.4 7.5 7.4 7.4 7.4 7.4 7.3 7.2 6.9 6.8 6.8 6.7 6.7 6.6 6.6 6.7 6.5 6.4 6.4 6.2 6.0 6.0 6.0 6.0 5.9 5.8 5.6 5.5 5.5 5.5 5.6 5.5 5.4 5.3 5.4 5.5 5.5 5.5 5.6
7.5 7.5 7.4 7.6 7.5 7.5 7.5 7.4 7.4 7.5 7.4 7.2 6.9 6.7 6.6 6.4 6.5 6.5 6.6 6.6 6.5 6.3 6.4 6.4 6.3 6.2 6.1 6.0 5.9 5.7 5.7 5.6 5.7 5.8 5.8 5.9 5.9 5.9 6.0 6.1 6.1 5.9 5.9
7.4 7.2 7.2 7.3 7.4 7.5 7.5 7.6 7.6 7.6 7.5 7.3 7.0 6.8 6.5 6.3 6.3 6.3 6.5 6.5 6.5 6.4 6.4 6.5 6.4 6.2 6.1 6.0 5.9 6.0 6.0 6.2 6.4 6.4 6.4 6.4 6.4 6.4 6.5 6.4 6.4 6.5 6.3
7.4 7.1 7.0 7.0 7.4 7.5 7.6 7.7 7.7 7.7 7.6 7.3 7.0 6.7 6.5 6.3 6.2 6.2 6.4 6.4 6.4 6.3 6.2 6.2 6.1 6.0 5.9 6.0 6.0 5.9 6.1 6.5 6.6 6.7 6.6 6.5 6.6 6.5 6.4 6.4 6.2 6.3 6.3
6.8 6.8 6.7 6.9 7.2 7.4 7.6 7.7 7.8 7.7 7.5 7.3 7.0 6.7 6.5 6.2 6.0 6.1 6.2 6.2 6.1 6.0 5.9 5.9 5.8 6.0 6.1 6.1 6.1 6.1 6.3 6.5 6.6 6.7 6.6 6.6 6.5 6.4 6.4 6.4 6.3 6.3 6.2
6.7 6.7 6.7 6.8 7.1 7.3 7.5 7.6 7.8 7.6 7.3 7.2 6.9 6.6 6.3 6.1 6.0 6.0 6.1 6.0 5.9 5.8 5.7 5.6 5.7 5.9 5.9 6.0 6.0 6.0 6.4 6.6 6.6 6.5 6.5 6.5 6.4 6.3 6.3 6.3 6.1 6.0 6.0
6.7 6.6 6.7 6.9 6.9 7.2 7.5 7.6 7.6 7.4 7.2 7.0 6.8 6.5 6.2 6.1 6.0 6.0 6.1 5.9 5.6 5.5 5.6 5.6 5.8 6.0 6.0 6.0 6.1 6.2 6.5 6.6 6.5 6.4 6.3 6.3 6.2 6.2 6.1 5.9 5.8 5.7 5.7
6.7 6.7 6.7 6.8 6.8 6.9 7.3 7.5 7.4 7.1 7.0 6.8 6.6 6.4 6.2 6.0 5.9 5.8 5.8 5.5 5.4 5.4 5.5 5.6 5.7 5.9 6.2 6.4 6.5 6.5 6.5 6.5 6.3 6.1 6.0 5.8 5.6 5.6 5.6 5.6 5.6 5.6 5.6
6.6 6.6 6.7 6.7 6.8 7.0 7.1 7.3 7.1 7.0 6.8 6.7 6.4 6.2 6.1 5.8 5.6 5.6 5.3 5.2 5.2 5.3 5.6 5.7 5.8 6.0 6.4 6.7 6.6 6.2 6.0 6.0 5.9 5.8 5.7 5.6 5.5 5.5 5.5 5.4 5.5 5.5 5.5
6.6 6.5 6.7 6.8 6.8 6.9 7.0 6.9 6.8 6.8 6.8 6.6 6.4 6.2 6.0 5.7 5.5 5.3 5.1 5.0 5.1 5.3 5.6 5.7 6.0 6.3 6.4 6.5 6.5 6.5 6.6 6.4 6.2 6.1 6.0 5.9 5.8 5.9 5.7 5.5 5.5 5.6 5.7
6.6 6.7 6.8 6.8 6.8 6.7 6.7 6.8 6.8 6.8 6.7 6.6 6.3 6.1 5.8 5.6 5.3 5.0 4.9 5.0 5.1 5.3 5.5 6.0 6.4 6.5 6.4 6.3 6.3 6.3 6.3 6.5 6.5 6.6 6.4 6.2 6.0 6.0 5.9 5.8 6.0 6.0 6.0
6.6 6.8 6.8 6.8 6.7 6.7 6.6 6.6 6.6 6.6 6.5 6.4 6.1 5.8 5.5 5.2 4.9 4.9 4.9 5.0 5.3 5.5 5.9 6.3 6.4 6.4 6.4 6.4 6.2 6.0 5.9 5.8 5.9 6.3 6.5 6.3 6.1 6.0 6.0 6.1 6.1 6.0 5.8
6.7 6.8 6.8 6.8 6.7 6.6 6.4 6.5 6.6 6.5 6.3 6.2 5.8 5.5 5.3 5.1 4.9 4.9 5.0 5.3 5.5 5.8 6.2 6.3 6.3 6.3 6.3 6.3 6.3 6.2 6.0 5.7 5.4 5.4 5.8 6.1 6.5 6.6 6.7 6.7 6.6 6.3 5.9
6.6 6.8 6.9 6.9 6.7 6.5 6.4 6.4 6.5 6.3 6.0 5.9 5.6 5.4 5.2 5.0 5.0 5.0 5.2 5.5 5.8 6.1 6.2 6.2 6.3 6.3 6.3 6.1 5.9 5.7 5.5 5.5 5.6 5.5 5.6 5.7 5.8 6.4 6.6 6.6 6.3 5.9 5.4
Wind_Speed
5 9 15 15 17 18 17 15 13 12 10 7 7 10 13 12 10 6 7 7 7 5 4 6 8 9 11 5 5 2 2 0 2 6 7 7 5 5 5 8 10 3 6
9 12 15 13 15 17 17 15 12 12 10 9 7 11 12 12 7 6 6 7 5 4 4 5 5 6 6 6 4 2 2 6 4 5 6 5 5 5 6 6 4 4 6
10 11 14 13 16 16 16 15 12 11 10 9 9 8 6 7 8 7 6 6 4 3 3 3 5 6 5 4 4 4 4 3 2 4 6 4 6 8 8 9 4 6 9
10 10 12 15 14 15 16 14 12 11 11 11 10 9 8 7 8 7 8 6 4 3 2 3 3 4 4 5 6 6 7 6 4 6 6 5 7 11 9 12 8 8 9
8 10 11 15 15 17 17 14 12 11 10 10 8 5 1 7 10 9 10 11 8 5 3 1 2 3 3 4 5 6 7 8 6 7 7 8 9 10 11 8 9 8 9
7 10 13 16 16 18 17 15 14 12 10 9 8 5 2 2 4 9 10 10 11 8 4 1 0 2 4 6 7 8 8 8 7 5 8 10 10 11 12 13 11 10 11
7 9 12 15 16 17 17 15 14 13 10 8 9 8 5 2 4 9 16 5 7 5 3 2 3 4 6 7 7 9 8 9 6 6 8 10 11 12 13 13 14 13 13
10 9 11 16 16 18 17 15 15 14 12 10 8 9 7 2 5 3 6 8 6 4 3 4 5 7 8 8 8 9 10 9 8 7 9 11 13 14 15 15 15 16 14
7 8 8 12 15 18 17 16 14 15 14 12 9 9 7 5 1 3 5 6 5 3 4 6 8 9 10 10 10 10 10 11 10 9 9 11 12 14 13 14 15 16 16
6 7 8 10 12 12 13 17 16 16 12 12 9 7 6 6 4 1 2 2 5 6 7 9 9 9 10 10 11 12 11 12 10 10 10 12 14 15 15 15 15 15 17
5 7 7 8 10 10 11 12 13 11 12 12 10 7 5 5 5 5 5 6 7 8 8 8 9 9 11 12 12 14 14 9 8 10 10 13 14 16 18 18 18 18 18
8 7 9 8 9 8 9 9 10 10 10 10 8 6 5 5 5 6 6 7 7 8 9 10 12 13 11 9 10 10 9 10 9 9 10 15 17 16 17 18 16 18 18
8 5 9 8 8 8 5 6 6 7 8 8 8 6 6 2 0 1 1 3 4 6 7 6 7 8 10 9 7 8 8 8 8 9 9 12 13 13 14 15 18 18 17
8 12 10 9 8 7 5 4 6 3 6 4 7 7 4 1 1 1 1 3 4 4 5 7 6 8 9 10 9 7 9 8 9 10 12 14 14 14 13 13 14 16 17
9 10 11 10 9 7 6 3 4 4 4 6 7 7 6 3 2 3 5 6 8 8 7 5 5 5 5 8 9 7 6 8 10 10 11 15 17 18 17 15 17 19 20
11 10 9 11 8 8 5 6 4 4 7 6 6 7 6 5 4 3 4 4 6 9 9 7 4 5 5 4 6 7 6 8 8 10 11 14 17 20 18 18 19 19 20
7 7 12 10 9 9 8 6 5 4 7 4 6 9 9 10 8 5 4 5 5 9 7 8 6 6 5 5 6 5 5 8 7 9 11 13 14 17 18 21 20 21 20
5 8 9 9 10 10 8 5 4 6 7 6 8 11 11 13 9 7 5 5 7 9 7 4 4 4 5 5 4 5 4 4 5 9 11 12 13 13 14 20 20 21 20
5 7 8 11 11 10 8 7 7 7 5 7 9 8 12 12 11 9 4 5 9 5 4 4 4 4 4 6 6 5 4 2 4 5 6 9 12 13 12 16 18 18 20
4 7 8 9 11 10 8 8 7 6 5 7 7 7 14 13 12 11 7 6 9 5 5 4 5 3 2 4 5 7 4 1 2 4 4 6 8 11 11 12 14 13 19
4 7 9 12 11 10 8 8 6 6 4 4 5 11 14 13 12 11 5 4 6 5 4 5 3 4 3 6 3 4 3 1 2 4 3 3 5 7 8 11 13 13 12
7 7 8 11 10 8 7 4 5 5 4 4 4 8 13 12 12 9 5 5 6 4 6 5 5 3 3 4 3 1 4 4 3 12 4 4 6 4 7 13 14 12 12
8 9 10 10 9 8 10 9 8 7 4 3 3 4 4 11 12 11 9 5 5 4 4 3 4 5 3 3 5 3 3 3 5 2 5 2 10 4 7 6 10 10 12
7 7 11 11 10 9 10 12 14 5 5 2 3 3 4 10 9 11 10 8 5 3 5 3 4 3 2 2 2 3 1 3 3 5 3 8 3 9 6 4 7 8 12
8 9 10 10 9 8 8 11 8 7 4 4 4 6 6 5 9 9 8 7 5 3 3 4 4 4 2 1 1 2 2 3 4 3 10 6 9 7 7 6 5 6 10
7 8 10 11 7 8 9 8 10 10 9 7 5 4 4 3 3 5 7 6 5 3 3 3 3 4 3 2 1 2 1 2 3 3 6 11 12 8 5 9 9 5 8
Wind_Direction
220 202 197 179 171 161 157 154 152 138 140 133 137 142 140 139 137 134 130 103 111 81 41 343 15 38 63 101 117 137 131 92 2 7 345 336 315 289 256 250 237 244 279
152 182 179 175 171 160 161 155 153 143 147 141 135 154 152 146 133 133 125 119 115 70 29 342 352 15 44 49 40 321 281 276 341 349 332 332 314 296 275 263 177 231 273
152 169 169 179 166 163 155 152 156 147 146 150 148 154 150 138 137 136 143 126 120 94 55 3 357 355 359 359 352 342 330 318 309 320 331 333 317 297 268 264 238 272 266
153 160 163 170 165 162 155 159 160 156 155 153 154 159 176 191 164 156 160 169 185 164 96 33 18 4 347 328 320 305 303 305 318 309 337 324 319 305 281 260 232 267 274
154 158 166 174 173 167 162 165 167 170 167 172 172 150 169 192 201 192 183 171 183 181 149 86 44 348 343 331 326 315 312 309 316 309 320 316 314 307 301 265 253 276 286
158 162 175 176 175 165 168 169 173 173 178 180 185 169 176 190 237 215 205 181 174 172 165 151 22 309 313 304 303 299 301 303 321 295 298 297 299 294 291 281 270 259 266
165 168 174 181 178 171 172 173 176 177 177 180 184 183 192 16 358 219 209 191 161 173 173 237 287 308 309 302 297 299 284 277 276 265 275 284 284 285 283 276 277 268 262
165 170 172 181 183 178 172 178 182 183 187 178 181 187 184 226 9 20 132 138 169 192 233 269 286 287 290 289 289 286 291 292 288 265 263 267 273 282 283 279 275 278 263
165 162 171 177 181 176 178 181 187 193 195 164 180 190 198 201 241 37 149 166 206 248 255 275 287 296 297 297 294 288 285 283 280 269 265 264 267 279 281 275 271 270 272
167 172 172 170 175 179 183 186 192 208 191 159 174 181 190 216 218 73 127 203 246 263 278 289 296 299 297 295 295 292 292 288 273 272 270 267 276 285 286 282 281 273 268
184 184 176 178 178 180 183 192 195 190 176 173 177 182 187 213 215 212 214 235 258 266 283 293 297 290 287 295 304 310 311 297 292 282 278 276 281 288 292 289 280 276 278
204 202 192 186 181 171 186 187 183 177 178 178 184 191 194 205 204 215 227 254 270 291 302 311 313 326 332 331 329 337 339 331 321 304 300 308 314 318 317 310 300 295 292
217 200 200 192 183 175 180 168 172 171 174 182 195 196 204 213 359 160 269 308 315 310 313 324 337 11 26 26 12 12 7 11 357 348 336 330 330 326 329 324 325 324 309
201 205 198 191 180 177 163 162 168 158 174 179 199 197 184 151 239 229 43 44 48 20 32 39 42 33 28 20 20 14 15 8 7 355 353 353 3 10 5 5 3 4 360
222 209 198 182 179 171 158 151 157 174 171 189 196 200 166 158 122 92 77 69 53 47 49 38 30 26 18 10 12 12 8 3 353 1 13 7 26 31 22 21 28 22 16
226 203 181 185 171 154 148 153 166 162 173 160 151 140 143 134 109 85 72 70 57 55 48 45 39 33 19 1 355 357 4 355 6 18 16 16 26 25 25 30 21 18 14
212 176 175 165 153 150 143 142 160 159 130 103 102 108 105 99 94 87 79 67 50 50 52 40 33 32 21 358 351 345 2 358 17 18 20 16 18 19 24 19 16 15 12
205 176 151 150 147 139 140 133 108 109 106 100 100 98 99 94 92 90 84 66 54 51 45 41 26 22 11 360 335 330 353 355 23 26 23 14 21 16 15 16 14 12 11
199 148 139 137 138 129 115 100 91 89 89 93 99 95 93 89 89 86 75 67 56 50 39 27 29 38 14 351 328 317 346 345 29 15 20 9 22 10 8 7 8 8 5
152 130 124 127 124 121 111 104 92 88 76 79 87 95 92 88 85 81 71 59 53 52 33 21 28 8 33 340 315 313 322 281 21 28 15 7 13 13 2 357 360 351 355
149 132 140 136 141 134 128 120 113 115 108 83 80 84 87 87 80 76 70 60 54 60 50 30 3 11 338 351 337 326 326 290 267 6 359 358 13 358 354 357 349 338 340
164 147 131 141 142 137 134 108 118 128 84 91 82 75 82 83 80 78 80 68 56 56 41 35 35 353 348 8 340 300 349 329 331 327 346 356 354 339 348 341 330 325 333
160 147 140 141 134 122 121 109 100 96 76 80 54 70 64 85 83 83 78 74 65 64 53 40 35 43 358 331 26 67 349 307 320 315 315 346 336 326 323 307 303 310 316
160 138 139 142 132 135 137 135 144 138 139 148 118 105 90 84 81 82 81 78 71 61 51 24 37 37 68 24 326 35 221 243 312 319 294 313 302 314 294 293 293 298 300
149 146 141 134 131 132 129 138 133 119 117 113 107 111 92 76 78 79 81 76 68 58 51 44 26 22 29 31 13 321 290 262 247 272 304 310 308 309 302 289 281 297 287
137 141 141 139 130 128 127 131 137 137 136 134 136 116 112 94 80 69 73 70 62 51 37 27 18 19 8 359 322 314 266 294 293 281 288 304 298 306 307 301 288 281 280